TimeAKST,TemperatureF,Dew PointF,Humidity,Sea Level PressureIn,VisibilityMPH,Wind Direction,Wind SpeedMPH,Gust SpeedMPH,PrecipitationIn,Events,Conditions,WindDirDegrees,DateUTC
12:16 AM,37.4,30.2,75,29.69,10.0,ESE,16.1,28.8,N/A,,Overcast,120,2013-02-27 09:16:00
12:36 AM,37.4,30.2,75,29.70,10.0,ESE,15.0,24.2,N/A,,Overcast,120,2013-02-27 09:36:00
12:56 AM,37.4,30.2,75,29.70,10.0,ESE,12.7,23.0,N/A,,Overcast,120,2013-02-27 09:56:00
1:16 AM,37.4,32.0,81,29.70,10.0,ESE,13.8,24.2,N/A,,Overcast,120,2013-02-27 10:16:00
1:36 AM,37.4,32.0,81,29.71,10.0,ESE,11.5,23.0,0.01,,Overcast,120,2013-02-27 10:36:00
1:56 AM,35.6,32.0,87,29.72,10.0,ESE,12.7,20.7,0.02,,Overcast,120,2013-02-27 10:56:00
2:16 AM,35.6,32.0,87,29.72,10.0,ESE,13.8,19.6,N/A,,Overcast,120,2013-02-27 11:16:00
2:36 AM,37.4,32.0,81,29.73,10.0,ESE,11.5,23.0,0.01,,Overcast,120,2013-02-27 11:36:00
2:56 AM,35.6,32.0,87,29.73,10.0,ESE,11.5,-,0.03,,Overcast,120,2013-02-27 11:56:00
3:16 AM,35.6,32.0,87,29.73,10.0,SE,12.7,21.9,N/A,,Overcast,130,2013-02-27 12:16:00
3:36 AM,35.6,32.0,87,29.72,10.0,ESE,12.7,19.6,0.01,,Overcast,120,2013-02-27 12:36:00
3:56 AM,35.6,32.0,87,29.72,10.0,ESE,10.4,19.6,0.01,,Overcast,120,2013-02-27 12:56:00
4:16 AM,37.4,32.0,81,29.73,10.0,SE,13.8,-,N/A,,Overcast,140,2013-02-27 13:16:00
4:36 AM,37.4,33.8,87,29.73,10.0,SE,12.7,-,0.01,,Overcast,140,2013-02-27 13:36:00
4:56 AM,37.4,33.8,87,29.73,10.0,ESE,8.1,-,0.01,,Overcast,120,2013-02-27 13:56:00
5:16 AM,37.4,33.8,87,29.72,10.0,ESE,9.2,-,N/A,,Overcast,120,2013-02-27 14:16:00
5:36 AM,37.4,32.0,81,29.72,10.0,ESE,12.7,18.4,N/A,,Overcast,110,2013-02-27 14:36:00
5:56 AM,37.4,32.0,81,29.72,10.0,ESE,11.5,20.7,N/A,,Overcast,120,2013-02-27 14:56:00
6:16 AM,35.6,32.0,87,29.71,10.0,ESE,11.5,16.1,N/A,,Overcast,110,2013-02-27 15:16:00
6:36 AM,35.6,32.0,87,29.70,10.0,ESE,11.5,-,N/A,,Overcast,110,2013-02-27 15:36:00
6:56 AM,35.6,32.0,87,29.70,10.0,East,10.4,17.3,N/A,,Mostly Cloudy,100,2013-02-27 15:56:00
7:16 AM,37.4,32.0,81,29.69,10.0,ESE,12.7,19.6,N/A,,Overcast,110,2013-02-27 16:16:00
7:36 AM,37.4,32.0,81,29.69,10.0,ESE,13.8,18.4,N/A,,Overcast,120,2013-02-27 16:36:00
7:56 AM,37.4,32.0,81,29.68,10.0,ESE,11.5,17.3,N/A,,Overcast,120,2013-02-27 16:56:00
8:16 AM,37.4,32.0,81,29.68,10.0,ESE,10.4,16.1,N/A,,Overcast,110,2013-02-27 17:16:00
8:36 AM,37.4,33.8,87,29.67,10.0,ESE,10.4,18.4,N/A,,Overcast,110,2013-02-27 17:36:00
8:56 AM,37.4,32.0,81,29.66,10.0,ESE,11.5,20.7,N/A,,Overcast,120,2013-02-27 17:56:00
9:16 AM,37.4,32.0,81,29.65,10.0,ESE,9.2,18.4,N/A,,Overcast,110,2013-02-27 18:16:00
9:36 AM,37.4,32.0,81,29.64,10.0,ESE,12.7,18.4,N/A,,Overcast,110,2013-02-27 18:36:00
9:56 AM,37.4,32.0,81,29.64,10.0,ESE,12.7,16.1,N/A,,Mostly Cloudy,110,2013-02-27 18:56:00
10:16 AM,37.4,30.2,75,29.62,10.0,ESE,12.7,21.9,N/A,,Overcast,120,2013-02-27 19:16:00
10:36 AM,37.4,32.0,81,29.61,10.0,ESE,17.3,21.9,0.01,,Overcast,120,2013-02-27 19:36:00
10:56 AM,37.4,32.0,81,29.60,10.0,ESE,16.1,24.2,0.01,,Overcast,110,2013-02-27 19:56:00
11:16 AM,37.4,32.0,81,29.58,10.0,ESE,15.0,21.9,N/A,,Overcast,110,2013-02-27 20:16:00
11:36 AM,37.4,32.0,81,29.58,10.0,ESE,15.0,25.3,0.01,,Overcast,110,2013-02-27 20:36:00
11:56 AM,37.4,32.0,81,29.57,10.0,ESE,12.7,20.7,0.02,,Overcast,110,2013-02-27 20:56:00
12:16 PM,37.4,32.0,81,29.55,10.0,ESE,18.4,26.5,0.02,,Overcast,110,2013-02-27 21:16:00
12:36 PM,37.4,32.0,81,29.55,10.0,ESE,17.3,27.6,0.03,,Overcast,110,2013-02-27 21:36:00
12:56 PM,35.6,32.0,87,29.55,10.0,ESE,17.3,24.2,0.04,,Overcast,110,2013-02-27 21:56:00
1:16 PM,37.4,33.8,87,29.55,10.0,ESE,13.8,25.3,N/A,,Overcast,110,2013-02-27 22:16:00
1:36 PM,37.4,33.8,87,29.56,10.0,SE,13.8,21.9,N/A,,Overcast,130,2013-02-27 22:36:00
1:56 PM,37.4,33.8,87,29.55,10.0,ESE,18.4,27.6,N/A,,Mostly Cloudy,120,2013-02-27 22:56:00
2:16 PM,37.4,33.8,87,29.54,10.0,SE,18.4,29.9,N/A,,Overcast,130,2013-02-27 23:16:00
2:36 PM,39.2,32.0,75,29.55,10.0,ESE,20.7,36.8,N/A,,Overcast,120,2013-02-27 23:36:00
2:56 PM,37.4,33.8,87,29.55,10.0,ESE,18.4,28.8,N/A,,Overcast,120,2013-02-27 23:56:00
3:16 PM,37.4,33.8,87,29.55,10.0,ESE,19.6,26.5,N/A,,Mostly Cloudy,120,2013-02-28 00:16:00
3:36 PM,39.2,33.8,81,29.56,10.0,ESE,19.6,27.6,N/A,,Overcast,120,2013-02-28 00:36:00
3:56 PM,37.4,32.0,81,29.56,8.0,ESE,18.4,32.2,0.04,,Overcast,120,2013-02-28 00:56:00
4:16 PM,37.4,33.8,87,29.56,10.0,ESE,15.0,26.5,0.01,,Overcast,120,2013-02-28 01:16:00
4:36 PM,37.4,32.0,81,29.57,10.0,SE,19.6,33.4,0.01,,Overcast,130,2013-02-28 01:36:00
4:56 PM,37.4,32.0,81,29.57,10.0,SE,17.3,33.4,0.02,,Overcast,130,2013-02-28 01:56:00
5:16 PM,35.6,32.0,87,29.57,10.0,ESE,18.4,27.6,0.01,,Overcast,120,2013-02-28 02:16:00
5:36 PM,35.6,30.2,81,29.59,10.0,SE,18.4,31.1,0.01,,Overcast,130,2013-02-28 02:36:00
5:56 PM,35.6,32.0,87,29.60,10.0,SE,19.6,32.2,0.02,,Overcast,130,2013-02-28 02:56:00
6:16 PM,35.6,32.0,87,29.61,10.0,SE,17.3,31.1,0.01,,Overcast,130,2013-02-28 03:16:00
6:36 PM,35.6,32.0,87,29.63,10.0,SE,19.6,25.3,0.03,,Overcast,140,2013-02-28 03:36:00
6:56 PM,37.4,33.8,87,29.65,10.0,SE,16.1,26.5,0.05,,Overcast,140,2013-02-28 03:56:00
7:16 PM,37.4,33.8,87,29.67,10.0,SSE,16.1,23.0,0.02,,Overcast,150,2013-02-28 04:16:00
7:36 PM,37.4,33.8,87,29.69,10.0,SE,12.7,21.9,0.04,,Overcast,140,2013-02-28 04:36:00
7:56 PM,37.4,33.8,87,29.71,10.0,SE,13.8,23.0,0.06,,Overcast,140,2013-02-28 04:56:00
8:16 PM,37.4,33.8,87,29.72,10.0,SE,13.8,19.6,0.01,,Overcast,140,2013-02-28 05:16:00
8:36 PM,37.4,32.0,81,29.73,10.0,SE,15.0,21.9,0.01,,Overcast,140,2013-02-28 05:36:00
8:56 PM,37.4,32.0,81,29.74,10.0,SE,15.0,23.0,0.01,,Scattered Clouds,140,2013-02-28 05:56:00
9:16 PM,37.4,32.0,81,29.77,10.0,SE,16.1,23.0,N/A,,Mostly Cloudy,140,2013-02-28 06:16:00
9:36 PM,37.4,32.0,81,29.78,10.0,SE,9.2,17.3,0.01,,Overcast,140,2013-02-28 06:36:00
9:56 PM,35.6,33.8,93,29.79,10.0,ESE,9.2,-,0.02,,Overcast,120,2013-02-28 06:56:00
10:16 PM,37.4,32.0,81,29.80,10.0,ESE,12.7,-,N/A,,Mostly Cloudy,120,2013-02-28 07:16:00
10:36 PM,37.4,33.8,87,29.81,10.0,SE,11.5,16.1,N/A,,Overcast,130,2013-02-28 07:36:00
10:56 PM,37.4,33.8,87,29.81,10.0,ESE,10.4,-,N/A,,Mostly Cloudy,120,2013-02-28 07:56:00
11:16 PM,37.4,33.8,87,29.81,10.0,ESE,10.4,16.1,N/A,,Scattered Clouds,120,2013-02-28 08:16:00
11:36 PM,35.6,33.8,93,29.81,10.0,ESE,9.2,-,N/A,,Scattered Clouds,110,2013-02-28 08:36:00
11:56 PM,37.4,33.8,87,29.82,10.0,ESE,10.4,16.1,N/A,,Overcast,120,2013-02-28 08:56:00